When you browse on this site, cookies collect data to enhance your experience and personalize the content and advertising you see.
Visit our Privacy Policy to learn more. By continuing to use the site, you agree to this use of cookies and data.
  • In Lithuania
  • List of Countries
  • For 7 days
  • Water Temperature
  • Satellite Maps
  • Weather Map
  • Weather Widgets
  • user-avatar
    Login

    Hourly Weather Farakka

    Today, 10 December, Monday

    Time Temperature Precipitation Wind Pressure Humidity
    00:00 +20°C° 0 mm 2 mps 758 mmHg 51%
    01:00 +20°C° 0 mm 2 mps 757 mmHg 52%
    02:00 +20°C° 0 mm 1 mps 757 mmHg 52%
    03:00 +20°C° 0 mm 1 mps 757 mmHg 52%
    04:00 +20°C° 0 mm 1 mps 757 mmHg 53%
    05:00 +19°C° 0 mm 1 mps 758 mmHg 54%
    06:00 +19°C° 0 mm 1 mps 758 mmHg 55%
    07:00 +19°C° 0 mm 2 mps 758 mmHg 52%
    08:00 +21°C° 0 mm 2 mps 759 mmHg 49%
    09:00 +23°C° 0 mm 2 mps 759 mmHg 46%
    10:00 +25°C° 0 mm 2 mps 759 mmHg 44%
    11:00 +26°C° 0 mm 2 mps 759 mmHg 41%
    12:00 +28°C° 0 mm 3 mps 759 mmHg 39%
    13:00 +28°C° 0 mm 2 mps 758 mmHg 38%
    14:00 +28°C° 0 mm 2 mps 757 mmHg 36%
    15:00 +29°C° 0 mm 2 mps 756 mmHg 35%
    16:00 +27°C° 0 mm 2 mps 756 mmHg 38%
    17:00 +26°C° 0 mm 1 mps 756 mmHg 41%
    18:00 +24°C° 0 mm 1 mps 756 mmHg 45%
    19:00 +24°C° 0 mm 1 mps 756 mmHg 46%
    20:00 +23°C° 0 mm 1 mps 757 mmHg 48%
    21:00 +23°C° 0 mm 1 mps 757 mmHg 49%
    22:00 +22°C° 0 mm 1 mps 757 mmHg 51%
    23:00 +22°C° 0 mm 1 mps 758 mmHg 53%

    Tomorrow, 11 December, Tuesday

    Time Temperature Precipitation Wind Pressure Humidity
    00:00 +21°C° 0 mm 1 mps 758 mmHg 54%
    01:00 +21°C° 0 mm 1 mps 758 mmHg 57%
    02:00 +19°C° 0 mm 2 mps 757 mmHg 60%
    03:00 +19°C° 0 mm 2 mps 757 mmHg 63%
    04:00 +18°C° 0 mm 2 mps 757 mmHg 65%
    05:00 +18°C° 0 mm 2 mps 757 mmHg 67%
    06:00 +17°C° 0 mm 2 mps 757 mmHg 69%
    07:00 +19°C° 0 mm 2 mps 758 mmHg 65%
    08:00 +20°C° 0 mm 2 mps 759 mmHg 60%
    09:00 +21°C° 0 mm 2 mps 760 mmHg 55%
    10:00 +23°C° 0 mm 2 mps 759 mmHg 53%
    11:00 +23°C° 0 mm 2 mps 759 mmHg 51%
    12:00 +24°C° 0 mm 2 mps 759 mmHg 49%
    13:00 +24°C° 0 mm 2 mps 758 mmHg 47%
    14:00 +25°C° 0 mm 2 mps 758 mmHg 45%
    15:00 +25°C° 0 mm 2 mps 757 mmHg 43%
    16:00 +24°C° 0 mm 2 mps 757 mmHg 46%
    17:00 +23°C° 0 mm 1 mps 757 mmHg 49%
    18:00 +22°C° 0 mm 1 mps 757 mmHg 52%
    19:00 +21°C° 0 mm 1 mps 757 mmHg 53%
    20:00 +21°C° 0 mm 1 mps 758 mmHg 54%
    21:00 +20°C° 0 mm 1 mps 758 mmHg 55%
    22:00 +20°C° 0 mm 1 mps 758 mmHg 55%
    23:00 +20°C° 0 mm 1 mps 758 mmHg 55%

    Day after tomorrow, 12 December, Wednesday

    Time Temperature Precipitation Wind Pressure Humidity
    00:00 +19°C° 0 mm 2 mps 758 mmHg 55%
    01:00 +18°C° 0 mm 2 mps 758 mmHg 57%
    02:00 +18°C° 0 mm 2 mps 758 mmHg 58%
    03:00 +18°C° 0 mm 2 mps 758 mmHg 59%
    04:00 +17°C° 0 mm 2 mps 758 mmHg 60%
    05:00 +17°C° 0 mm 2 mps 758 mmHg 61%
    06:00 +16°C° 0 mm 2 mps 758 mmHg 62%
    07:00 +18°C° 0 mm 2 mps 759 mmHg 56%
    08:00 +19°C° 0 mm 2 mps 760 mmHg 50%
    09:00 +21°C° 0 mm 2 mps 761 mmHg 44%
    10:00 +24°C° 0 mm 2 mps 760 mmHg 38%
    11:00 +25°C° 0 mm 2 mps 760 mmHg 33%
    12:00 +27°C° 0 mm 3 mps 760 mmHg 28%
    13:00 +28°C° 0 mm 3 mps 759 mmHg 27%
    14:00 +28°C° 0 mm 3 mps 758 mmHg 26%
    15:00 +28°C° 0 mm 3 mps 758 mmHg 25%
    16:00 +27°C° 0 mm 2 mps 758 mmHg 28%
    17:00 +25°C° 0 mm 2 mps 758 mmHg 31%
    18:00 +23°C° 0 mm 2 mps 757 mmHg 34%
    19:00 +23°C° 0 mm 2 mps 758 mmHg 35%
    20:00 +21°C° 0 mm 2 mps 759 mmHg 36%
    21:00 +21°C° 0 mm 1 mps 759 mmHg 37%
    22:00 +21°C° 0 mm 1 mps 759 mmHg 38%
    23:00 +20°C° 0 mm 1 mps 759 mmHg 39%

    13 December, Thursday

    Time Temperature Precipitation Wind Pressure Humidity
    00:00 +20°C° 0 mm 1 mps 759 mmHg 41%
    01:00 +19°C° 0 mm 2 mps 759 mmHg 42%
    02:00 +18°C° 0 mm 2 mps 759 mmHg 43%
    03:00 +18°C° 0 mm 2 mps 759 mmHg 44%
    04:00 +18°C° 0 mm 2 mps 759 mmHg 44%
    05:00 +17°C° 0 mm 2 mps 759 mmHg 45%
    06:00 +17°C° 0 mm 2 mps 759 mmHg 45%
    07:00 +18°C° 0 mm 2 mps 760 mmHg 42%
    08:00 +20°C° 0 mm 2 mps 760 mmHg 38%
    09:00 +21°C° 0 mm 2 mps 761 mmHg 35%
    10:00 +24°C° 0 mm 2 mps 761 mmHg 32%
    11:00 +26°C° 0 mm 3 mps 761 mmHg 28%
    12:00 +28°C° 0 mm 3 mps 760 mmHg 25%
    13:00 +28°C° 0 mm 3 mps 759 mmHg 25%
    14:00 +28°C° 0 mm 3 mps 759 mmHg 24%
    15:00 +29°C° 0 mm 3 mps 758 mmHg 24%
    16:00 +27°C° 0 mm 3 mps 758 mmHg 26%
    17:00 +25°C° 0 mm 3 mps 758 mmHg 29%
    18:00 +24°C° 0 mm 2 mps 758 mmHg 32%
    19:00 +23°C° 0 mm 2 mps 758 mmHg 33%
    20:00 +21°C° 0 mm 2 mps 759 mmHg 34%
    21:00 +21°C° 0 mm 2 mps 760 mmHg 35%
    22:00 +21°C° 0 mm 1 mps 760 mmHg 35%
    23:00 +21°C° 0 mm 1 mps 760 mmHg 36%

    14 December, Friday

    Time Temperature Precipitation Wind Pressure Humidity
    00:00 +20°C° 0 mm 1 mps 760 mmHg 36%
    01:00 +19°C° 0 mm 2 mps 759 mmHg 37%
    02:00 +18°C° 0 mm 2 mps 759 mmHg 37%
    03:00 +18°C° 0 mm 2 mps 759 mmHg 38%
    04:00 +17°C° 0 mm 2 mps 759 mmHg 39%
    05:00 +17°C° 0 mm 2 mps 759 mmHg 39%
    06:00 +17°C° 0 mm 2 mps 759 mmHg 40%
    07:00 +18°C° 0 mm 2 mps 760 mmHg 38%
    08:00 +20°C° 0 mm 2 mps 761 mmHg 35%
    09:00 +21°C° 0 mm 2 mps 762 mmHg 33%
    10:00 +24°C° 0 mm 3 mps 762 mmHg 29%
    11:00 +26°C° 0 mm 3 mps 761 mmHg 26%
    12:00 +28°C° 0 mm 3 mps 761 mmHg 22%
    13:00 +28°C° 0 mm 4 mps 760 mmHg 22%
    14:00 +28°C° 0 mm 4 mps 759 mmHg 22%
    15:00 +28°C° 0 mm 4 mps 759 mmHg 21%
    16:00 +27°C° 0 mm 3 mps 759 mmHg 24%
    17:00 +25°C° 0 mm 3 mps 759 mmHg 27%
    18:00 +23°C° 0 mm 2 mps 759 mmHg 30%
    19:00 +23°C° 0 mm 2 mps 760 mmHg 32%
    20:00 +21°C° 0 mm 2 mps 761 mmHg 33%
    21:00 +20°C° 0 mm 2 mps 761 mmHg 35%
    22:00 +20°C° 0 mm 2 mps 761 mmHg 36%
    23:00 +19°C° 0 mm 2 mps 761 mmHg 37%

    15 December, Saturday

    Time Temperature Precipitation Wind Pressure Humidity
    00:00 +19°C° 0 mm 2 mps 761 mmHg 38%
    01:00 +18°C° 0 mm 2 mps 761 mmHg 38%
    02:00 +18°C° 0 mm 2 mps 760 mmHg 39%
    03:00 +17°C° 0 mm 2 mps 760 mmHg 39%
    04:00 +17°C° 0 mm 2 mps 760 mmHg 39%
    05:00 +16°C° 0 mm 2 mps 760 mmHg 40%
    06:00 +16°C° 0 mm 2 mps 760 mmHg 40%
    07:00 +17°C° 0 mm 2 mps 761 mmHg 37%
    08:00 +19°C° 0 mm 2 mps 762 mmHg 35%
    09:00 +20°C° 0 mm 3 mps 763 mmHg 32%
    10:00 +22°C° 0 mm 3 mps 762 mmHg 28%
    11:00 +25°C° 0 mm 3 mps 762 mmHg 25%
    12:00 +27°C° 0 mm 4 mps 762 mmHg 21%
    13:00 +27°C° 0 mm 4 mps 761 mmHg 21%
    14:00 +28°C° 0 mm 3 mps 761 mmHg 21%
    15:00 +28°C° 0 mm 3 mps 760 mmHg 21%
    16:00 +27°C° 0 mm 3 mps 760 mmHg 24%
    17:00 +25°C° 0 mm 2 mps 760 mmHg 26%
    18:00 +24°C° 0 mm 2 mps 760 mmHg 29%
    19:00 +23°C° 0 mm 2 mps 761 mmHg 29%
    20:00 +21°C° 0 mm 2 mps 761 mmHg 30%
    21:00 +21°C° 0 mm 2 mps 762 mmHg 30%
    22:00 +20°C° 0 mm 2 mps 762 mmHg 31%
    23:00 +20°C° 0 mm 3 mps 762 mmHg 32%
    Show more